{"data":{"norad_id":47321,"epoch":"2026-09-20T01:54:44.878176Z","epoch_age_seconds":61951,"freshness":"FRESH","line1":"1 47321U 21003A   26263.07968609 -.00000158  00000+0  00000+0 0  9990","line2":"2 47321   1.7006 345.3795 0003226 203.7957 280.0212  1.00273764 20912","mean_motion":1.00273764,"eccentricity":0.0003226,"inclination_deg":1.7006,"raan_deg":345.3795,"arg_perigee_deg":203.7957,"mean_anomaly_deg":280.0212,"bstar":0,"rev_number":2091,"period_min":1436.0685612639,"perigee_km":35772.438021215,"apogee_km":35799.642348335,"semimajor_km":42164.177184775,"source":"CELESTRAK","updated_at":"2026-09-20T09:00:35.297230Z"}}